Home   Weather   Pomona   Past weeks

Flag for USA Past Weather in Pomona, California, USA — Yesterday and Last 2 Weeks

75 °F

Partly sunny.

Feels Like: 77 °F
Forecast: 59 / 81 °F
Wind: 14 mph from Southeast

Location: Chino Airport

Current Time: Oct 23, 2016 at 3:17:57 PM

Latest Report: Oct 23, 2016 at 1:53 PM

Visibility: 10 mi

Pressure: 30.02 "Hg

Humidity: 36%

Dew Point: 46 °F

Location of PomonaLocation

Past Weather in Pomona — Graph


Pomona Temperature Yesterday

Maximum temperature yesterday: 91 °F (at 1:53 PM)
Minimum temperature yesterday: 52 °F (at 4:53 AM)
Average temperature yesterday: 69 °F

High & Low Weather Summary for the Past Weeks

High98 °F (Oct 9, 2:53 PM)93% (Oct 14, 7:53 AM)30.10 "Hg (Oct 14, 7:53 AM)
Low52 °F (Oct 13, 4:53 AM)3% (Oct 20, 1:53 PM)29.81 "Hg (Oct 21, 4:53 PM)
Average69 °F55%29.96 "Hg
* Reported Oct 8 1:53 PM — Oct 23 1:53 PM, Pomona, Weather by CustomWeather, © 2016

Note: Actual official high and low records may vary slightly from our data, if they occured in-between our weather recording intervals... More about our weather records


Pomona Weather History for the Previous 24 Hours

Scroll right to see more
Time TempWeatherWind HumidityBarometerVisibility
1:53 PM
Sun, Oct 23
75 °FPartly sunny.14 mph36%30.02 "Hg10 mi
12:53 PM74 °FLight rain. Overcast.5 mph37%30.03 "Hg10 mi
11:53 AM77 °FPartly sunny.3 mph22%30.06 "Hg10 mi
10:53 AM76 °FPartly sunny.3 mph29%30.05 "Hg10 mi
9:53 AM69 °FPartly sunny.No wind45%30.04 "Hg10 mi
8:53 AM65 °FPartly sunny.No wind47%30.03 "Hg10 mi
7:53 AM61 °FPartly sunny.3 mph58%30.01 "Hg10 mi
6:53 AM59 °FPassing clouds.No wind60%29.98 "Hg10 mi
5:53 AM58 °FClear.No wind65%29.96 "Hg7 mi
4:53 AM59 °FClear.No wind58%29.96 "Hg8 mi
3:53 AM59 °FClear.No wind60%29.95 "Hg7 mi
2:53 AM56 °FClear.No wind70%29.95 "Hg7 mi
1:53 AM58 °FClear.No wind65%29.95 "Hg6 mi
12:53 AM59 °FClear.No wind64%29.94 "Hg6 mi
11:53 PM
Sat, Oct 22
60 °FClear.No wind65%29.93 "Hg6 mi
10:53 PM63 °FClear.No wind56%29.93 "Hg7 mi
9:53 PM62 °FClear.No wind58%29.93 "Hg8 mi
8:53 PM69 °FClear.No wind39%29.90 "Hg9 mi
7:53 PM68 °FClear.5 mph39%29.89 "Hg10 mi
6:53 PM74 °FPassing clouds.9 mph28%29.87 "Hg10 mi
5:53 PM78 °FPassing clouds.13 mph23%29.85 "Hg10 mi
4:53 PM84 °FScattered clouds.14 mph19%29.85 "Hg10 mi
3:53 PM87 °FPassing clouds.14 mph19%29.84 "Hg10 mi
Weather by CustomWeather, © 2016

See weather overviewHow to use our weather pages